Station Historical Data
Daily Summary for January 27, 2018 Units:  Metric    English   Both
« Previous Day
Next Day »
Daily Weekly Monthly Yearly Custom
  High: Low: Average:
Temperature: -17.8 °C 2.4 °C 7.3 °C
Dew Point: -17.8 °C -4.6 °C 0.4 °C
Humidity: Humidity% 41% 64%
Wind Speed: 0km/h 1.6km/h 10.5km/h
Wind Gust: 0km/h - -
Wind- - SW
Pressure: 0 hPa 1017.8 hPa -
Precipitation: 0 mm    
Historical Graphs
 
 
Tabular Data for January 27, 2018
Time Temperature Dew Point Pressure Wind Wind Speed Wind Gust Humidity Rainfall Rate (Hourly)
-17.8 °C -17.8 °C 0 hPa Calm     Humidity% 0 mm
00:00 8.2 °C -2.5 °C 1023.9 hPa SSW 11.3 km/h 29 km/h 47% 0 mm
00:05 8.3 °C -2.4 °C 1024.3 hPa SSW 8 km/h 22.5 km/h 47% 0 mm
00:09 8.2 °C -2.5 °C 1023.9 hPa SSW 9.7 km/h 22.5 km/h 47% 0 mm
00:14 8.2 °C -2.5 °C 1023.9 hPa SW 9.7 km/h 19.3 km/h 47% 0 mm
00:19 8 °C -2.7 °C 1023.9 hPa SSW 9.7 km/h 20.9 km/h 47% 0 mm
00:25 7.8 °C -2.5 °C 1023.9 hPa SW 9.7 km/h 20.9 km/h 48% 0 mm
00:29 7.7 °C -2.6 °C 1023.9 hPa WSW 6.4 km/h 14.5 km/h 48% 0 mm
00:34 7.6 °C -2.8 °C 1023.6 hPa WSW 8 km/h 16.1 km/h 48% 0 mm
00:39 7.4 °C -2.6 °C 1023.6 hPa SW 8 km/h 16.1 km/h 49% 0 mm
00:44 7.3 °C -2.4 °C 1023.6 hPa SW 6.4 km/h 16.1 km/h 50% 0 mm
00:49 7.2 °C -2.5 °C 1023.2 hPa SSW 8 km/h 16.1 km/h 50% 0 mm
00:54 7.2 °C -2.8 °C 1023.2 hPa SSW 8 km/h 17.7 km/h 49% 0 mm
01:00 7.1 °C -2.7 °C 1023.2 hPa SW 1.6 km/h 14.5 km/h 50% 0 mm
01:05 6.9 °C -2.8 °C 1022.9 hPa SW 3.2 km/h 11.3 km/h 50% 0 mm
01:10 6.9 °C -2.8 °C 1022.9 hPa South 14.5 km/h 14.5 km/h 50% 0 mm
01:14 7.1 °C -2.9 °C 1022.9 hPa SSW 6.4 km/h 16.1 km/h 49% 0 mm
01:19 7.4 °C -2.9 °C 1022.9 hPa SSW 8 km/h 20.9 km/h 48% 0 mm
01:24 7.6 °C -3.1 °C 1022.6 hPa SSW 8 km/h 20.9 km/h 47% 0 mm
01:30 7.8 °C -3.1 °C 1022.6 hPa SSW 8 km/h 19.3 km/h 46% 0 mm
01:34 8.1 °C -3.2 °C 1022.6 hPa WSW 9.7 km/h 19.3 km/h 45% 0 mm
01:39 8.4 °C -3.2 °C 1022.6 hPa WSW 11.3 km/h 22.5 km/h 44% 0 mm
01:44 8.6 °C -3.3 °C 1022.6 hPa SSW 8 km/h 19.3 km/h 43% 0 mm
01:49 8.6 °C -3.3 °C 1022.6 hPa SSW 11.3 km/h 24.1 km/h 43% 0 mm
01:54 8.7 °C -3.2 °C 1022.6 hPa SSW 9.7 km/h 24.1 km/h 43% 0 mm
01:59 8.8 °C -3.4 °C 1022.6 hPa SSW 11.3 km/h 29 km/h 42% 0 mm
02:04 8.9 °C -3.3 °C 1022.6 hPa SSW 11.3 km/h 29 km/h 42% 0 mm
02:10 8.9 °C -3.3 °C 1022.6 hPa South 9.7 km/h 19.3 km/h 42% 0 mm
02:15 8.9 °C -3.3 °C 1022.6 hPa SSW 6.4 km/h 27.4 km/h 42% 0 mm
02:20 8.8 °C -3.4 °C 1022.6 hPa SSW 6.4 km/h 20.9 km/h 42% 0 mm
02:24 8.7 °C -3.5 °C 1022.6 hPa SSW 8 km/h 24.1 km/h 42% 0 mm
02:29 8.7 °C -3.6 °C 1022.6 hPa SSW 9.7 km/h 24.1 km/h 42% 0 mm
02:34 8.6 °C -3.3 °C 1022.6 hPa SSW 9.7 km/h 25.7 km/h 43% 0 mm
02:39 8.5 °C -3.4 °C 1022.6 hPa SSW 9.7 km/h 25.7 km/h 43% 0 mm
02:44 8.4 °C -3.4 °C 1022.6 hPa South 11.3 km/h 19.3 km/h 43% 0 mm
02:49 8.4 °C -3.5 °C 1022.6 hPa SSW 11.3 km/h 17.7 km/h 43% 0 mm
02:54 8.3 °C -3.2 °C 1022.6 hPa South 8 km/h 12.9 km/h 44% 0 mm
02:59 8.3 °C -3.6 °C 1022.6 hPa SSW 8 km/h 19.3 km/h 43% 0 mm
03:04 8.3 °C -3.2 °C 1022.2 hPa SSW 8 km/h 19.3 km/h 44% 0 mm
03:09 8.3 °C -3.2 °C 1022.2 hPa SSW 8 km/h 20.9 km/h 44% 0 mm
03:14 8.3 °C -3.6 °C 1021.9 hPa SSW 4.8 km/h 16.1 km/h 43% 0 mm
03:20 8.2 °C -3.4 °C 1021.9 hPa South 9.7 km/h 16.1 km/h 44% 0 mm
03:25 8.1 °C -3.5 °C 1021.9 hPa SSW 8 km/h 19.3 km/h 44% 0 mm
03:29 8.1 °C -3.5 °C 1021.9 hPa SSW 8 km/h 20.9 km/h 44% 0 mm
03:34 8.1 °C -3.5 °C 1021.9 hPa SSW 8 km/h 20.9 km/h 44% 0 mm
03:39 8.1 °C -3.5 °C 1021.9 hPa SSW 8 km/h 16.1 km/h 44% 0 mm
03:44 8.1 °C -3.5 °C 1021.9 hPa SSW 4.8 km/h 14.5 km/h 44% 0 mm
03:50 8.1 °C -3.5 °C 1021.9 hPa SSW 4.8 km/h 17.7 km/h 44% 0 mm
03:55 7.9 °C -3.6 °C 1021.9 hPa South 9.7 km/h 16.1 km/h 44% 0 mm
04:00 8 °C -3.6 °C 1021.9 hPa SSW 8 km/h 17.7 km/h 44% 0 mm
04:09 7.9 °C -3.6 °C 1021.9 hPa SSW 8 km/h 17.7 km/h 44% 0 mm
04:14 7.8 °C -3.7 °C 1021.6 hPa SSW 8 km/h 16.1 km/h 44% 0 mm
04:20 7.8 °C -3.7 °C 1021.6 hPa SSW 9.7 km/h 24.1 km/h 44% 0 mm
04:25 7.8 °C -3.7 °C 1021.9 hPa SSW 8 km/h 22.5 km/h 44% 0 mm
04:30 7.8 °C -3.7 °C 1021.6 hPa SSW 8 km/h 22.5 km/h 44% 0 mm
04:39 7.7 °C -3.8 °C 1021.6 hPa SSW 8 km/h 20.9 km/h 44% 0 mm
04:44 7.6 °C -3.9 °C 1021.6 hPa SSW 8 km/h 20.9 km/h 44% 0 mm
04:49 7.7 °C -3.8 °C 1021.6 hPa SW 16.1 km/h 20.9 km/h 44% 0 mm
04:54 7.7 °C -4.1 °C 1021.6 hPa South 12.9 km/h 24.1 km/h 43% 0 mm
04:59 7.8 °C -4 °C 1021.6 hPa SSW 11.3 km/h 22.5 km/h 43% 0 mm
05:04 7.9 °C -3.9 °C 1021.6 hPa South 8 km/h 20.9 km/h 43% 0 mm
05:09 7.8 °C -4 °C 1021.6 hPa SSW 8 km/h 16.1 km/h 43% 0 mm
05:14 7.8 °C -4 °C 1021.6 hPa SSW 8 km/h 24.1 km/h 43% 0 mm
05:19 7.7 °C -4.1 °C 1021.6 hPa SSW 8 km/h 24.1 km/h 43% 0 mm
05:24 7.7 °C -4.1 °C 1021.6 hPa SSW 8 km/h 25.7 km/h 43% 0 mm
05:29 7.7 °C -4.2 °C 1021.2 hPa SSW 8 km/h 25.7 km/h 43% 0 mm
05:34 7.7 °C -4.1 °C 1021.2 hPa SSW 8 km/h 22.5 km/h 43% 0 mm
05:40 7.7 °C -4.4 °C 1021.2 hPa SSW 9.7 km/h 22.5 km/h 42% 0 mm
05:44 7.7 °C -4.4 °C 1021.2 hPa SSW 9.7 km/h 22.5 km/h 42% 0 mm
05:49 7.7 °C -4.1 °C 1021.2 hPa SSW 8 km/h 14.5 km/h 43% 0 mm
05:54 7.7 °C -4.4 °C 1021.2 hPa SSW 6.4 km/h 17.7 km/h 42% 0 mm
05:59 7.7 °C -4.4 °C 1021.2 hPa South 14.5 km/h 22.5 km/h 42% 0 mm
06:04 7.8 °C -4.3 °C 1021.2 hPa SW 8 km/h 20.9 km/h 42% 0 mm
06:09 7.7 °C -4.4 °C 1021.2 hPa SSW 9.7 km/h 19.3 km/h 42% 0 mm
06:14 7.7 °C -4.4 °C 1021.6 hPa SSW 4.8 km/h 17.7 km/h 42% 0 mm
06:19 7.7 °C -4.4 °C 1021.2 hPa SSW 8 km/h 17.7 km/h 42% 0 mm
06:24 7.6 °C -4.6 °C 1021.2 hPa SSW 8 km/h 20.9 km/h 42% 0 mm
06:29 7.7 °C -4.4 °C 1021.2 hPa SSW 8 km/h 22.5 km/h 42% 0 mm
06:34 7.8 °C -4.6 °C 1021.2 hPa SSW 9.7 km/h 22.5 km/h 41% 0 mm
06:39 7.9 °C -4.5 °C 1021.2 hPa SSW 9.7 km/h 20.9 km/h 41% 0 mm
06:44 8.1 °C -4.4 °C 1021.2 hPa SSW 11.3 km/h 29 km/h 41% 0 mm
06:49 8.2 °C -4.3 °C 1021.2 hPa SSW 9.7 km/h 25.7 km/h 41% 0 mm
06:54 8.2 °C -4.3 °C 1021.2 hPa WSW 6.4 km/h 20.9 km/h 41% 0 mm
06:59 8.2 °C -4.3 °C 1021.2 hPa SSW 16.1 km/h 24.1 km/h 41% 0 mm
07:04 8.2 °C -3.9 °C 1021.2 hPa SW 16.1 km/h 19.3 km/h 42% 0 mm
07:09 8.2 °C -4.3 °C 1021.2 hPa South 6.4 km/h 22.5 km/h 41% 0 mm
07:14 8.1 °C -4.1 °C 1021.2 hPa SSW 6.4 km/h 24.1 km/h 42% 0 mm
07:19 8 °C -4.2 °C 1021.2 hPa SSW 11.3 km/h 22.5 km/h 42% 0 mm
07:24 8 °C -4.2 °C 1021.2 hPa SSW 9.7 km/h 22.5 km/h 42% 0 mm
07:29 7.9 °C -3.9 °C 1021.2 hPa SSW 11.3 km/h 24.1 km/h 43% 0 mm
07:34 7.9 °C -3.6 °C 1021.2 hPa SSW 9.7 km/h 24.1 km/h 44% 0 mm
07:39 7.9 °C -3.6 °C 1020.9 hPa SSW 9.7 km/h 22.5 km/h 44% 0 mm
07:44 7.9 °C -3.6 °C 1021.2 hPa SSW 9.7 km/h 19.3 km/h 44% 0 mm
07:49 7.8 °C -3.7 °C 1021.2 hPa SW 6.4 km/h 17.7 km/h 44% 0 mm
07:54 7.8 °C -3.4 °C 1020.9 hPa South 4.8 km/h 20.9 km/h 45% 0 mm
07:59 7.8 °C -3.4 °C 1021.2 hPa SSW 8 km/h 20.9 km/h 45% 0 mm
08:04 7.9 °C -3.3 °C 1020.9 hPa SSW 8 km/h 19.3 km/h 45% 0 mm
08:09 8 °C -3.2 °C 1021.2 hPa SSW 9.7 km/h 20.9 km/h 45% 0 mm
08:14 8.1 °C -3.2 °C 1020.9 hPa SSW 8 km/h 17.7 km/h 45% 0 mm
08:19 8.2 °C -2.8 °C 1020.9 hPa SW 11.3 km/h 24.1 km/h 46% 0 mm
08:24 8.3 °C -2.7 °C 1020.9 hPa SSW 12.9 km/h 20.9 km/h 46% 0 mm
08:29 8.3 °C -2.6 °C 1020.9 hPa SSW 9.7 km/h 20.9 km/h 46% 0 mm
08:34 8.3 °C -2.6 °C 1020.9 hPa SSW 8 km/h 19.3 km/h 46% 0 mm
08:39 8.4 °C -2.6 °C 1020.9 hPa SSW 9.7 km/h 19.3 km/h 46% 0 mm
08:44 8.4 °C -2.2 °C 1020.9 hPa South 6.4 km/h 25.7 km/h 47% 0 mm
08:49 8.5 °C -2.2 °C 1020.9 hPa South 16.1 km/h 27.4 km/h 47% 0 mm
08:54 8.6 °C -2.1 °C 1020.5 hPa South 4.8 km/h 22.5 km/h 47% 0 mm
08:59 8.6 °C -2.1 °C 1020.5 hPa SSW 12.9 km/h 24.1 km/h 47% 0 mm
09:04 8.6 °C -2.1 °C 1020.5 hPa SSW 12.9 km/h 24.1 km/h 47% 0 mm
09:09 8.7 °C -2.1 °C 1020.5 hPa SSW 12.9 km/h 24.1 km/h 47% 0 mm
09:14 8.7 °C -2 °C 1020.5 hPa SSW 11.3 km/h 25.7 km/h 47% 0 mm
09:19 8.8 °C -1.9 °C 1020.5 hPa South 12.9 km/h 27.4 km/h 47% 0 mm
09:24 8.8 °C -1.7 °C 1020.5 hPa SSW 9.7 km/h 27.4 km/h 48% 0 mm
09:29 8.7 °C -1.7 °C 1020.5 hPa SW 17.7 km/h 27.4 km/h 48% 0 mm
09:34 8.7 °C -1.7 °C 1020.5 hPa SSW 12.9 km/h 30.6 km/h 48% 0 mm
09:39 8.7 °C -1.4 °C 1020.2 hPa SSW 12.9 km/h 30.6 km/h 49% 0 mm
09:44 8.8 °C -1.4 °C 1020.5 hPa SSW 11.3 km/h 25.7 km/h 49% 0 mm
09:49 8.9 °C -1.3 °C 1020.5 hPa South 12.9 km/h 29 km/h 49% 0 mm
09:54 8.9 °C -1.3 °C 1020.5 hPa SSE 12.9 km/h 25.7 km/h 49% 0 mm
09:59 8.8 °C -1.1 °C 1020.5 hPa South 8 km/h 25.7 km/h 50% 0 mm
10:04 8.8 °C -0.8 °C 1020.5 hPa SSW 11.3 km/h 25.7 km/h 51% 0 mm
10:09 8.9 °C -0.9 °C 1020.5 hPa SSW 11.3 km/h 27.4 km/h 50% 0 mm
10:14 8.9 °C -0.9 °C 1020.5 hPa SW 12.9 km/h 20.9 km/h 50% 0 mm
10:19 8.9 °C -0.7 °C 1020.5 hPa SSW 17.7 km/h 24.1 km/h 51% 0 mm
10:24 8.9 °C -0.2 °C 1020.5 hPa SSW 12.9 km/h 25.7 km/h 53% 0 mm
10:29 8.9 °C 0.1 °C 1020.5 hPa WSW 6.4 km/h 22.5 km/h 54% 0 mm
10:34 8.9 °C -0.2 °C 1020.5 hPa SSW 4.8 km/h 27.4 km/h 53% 0 mm
10:39 8.9 °C -0.2 °C 1020.5 hPa SSW 9.7 km/h 27.4 km/h 53% 0 mm
10:44 8.9 °C 0.1 °C 1020.2 hPa SSW 11.3 km/h 22.5 km/h 54% 0 mm
10:49 8.9 °C 0.1 °C 1020.2 hPa South 8 km/h 22.5 km/h 54% 0 mm
10:54 8.9 °C 0.4 °C 1020.2 hPa SW 3.2 km/h 19.3 km/h 55% 0 mm
10:59 8.9 °C 0.4 °C 1020.2 hPa SSW 1.6 km/h 16.1 km/h 55% 0 mm
11:04 8.9 °C 0.4 °C 1020.2 hPa SSW 6.4 km/h 22.5 km/h 55% 0 mm
11:09 8.9 °C 0.6 °C 1020.2 hPa SSW 9.7 km/h 22.5 km/h 56% 0 mm
11:14 8.9 °C 0.6 °C 1020.2 hPa SSW 11.3 km/h 22.5 km/h 56% 0 mm
11:19 8.9 °C 0.9 °C 1020.2 hPa SW 9.7 km/h 22.5 km/h 57% 0 mm
11:24 9.1 °C 0.7 °C 1019.9 hPa SW 9.7 km/h 24.1 km/h 56% 0 mm
11:29 9.2 °C 0.8 °C 1019.9 hPa SW 11.3 km/h 24.1 km/h 56% 0 mm
11:34 9.2 °C 0.8 °C 1019.9 hPa SW 12.9 km/h 25.7 km/h 56% 0 mm
11:40 9.1 °C 1.1 °C 1019.5 hPa South 16.1 km/h 27.4 km/h 57% 0 mm
11:44 9.2 °C 1.1 °C 1019.5 hPa SSW 11.3 km/h 27.4 km/h 57% 0 mm
11:49 9.2 °C 1.1 °C 1019.5 hPa SSW 11.3 km/h 22.5 km/h 57% 0 mm
11:54 9.2 °C 1.1 °C 1019.5 hPa SW 16.1 km/h 29 km/h 57% 0 mm
11:59 9.2 °C 1.1 °C 1019.5 hPa SW 8 km/h 30.6 km/h 57% 0 mm
12:04 9.2 °C 1.3 °C 1019.2 hPa SW 3.2 km/h 25.7 km/h 58% 0 mm
12:09 9.1 °C 1.3 °C 1019.5 hPa South 8 km/h 25.7 km/h 58% 0 mm
12:14 9.1 °C 1.4 °C 1019.2 hPa SSW 8 km/h 33.8 km/h 59% 0 mm
12:19 9.1 °C 1.7 °C 1019.2 hPa SSW 11.3 km/h 33.8 km/h 60% 0 mm
12:24 9 °C 1.7 °C 1019.2 hPa SSW 11.3 km/h 27.4 km/h 60% 0 mm
12:29 9 °C 1.9 °C 1019.2 hPa SSW 11.3 km/h 29 km/h 61% 0 mm
12:34 8.9 °C 1.8 °C 1019.2 hPa SSW 12.9 km/h 29 km/h 61% 0 mm
12:39 8.9 °C 2 °C 1019.2 hPa SW 22.5 km/h 22.5 km/h 62% 0 mm
12:44 8.8 °C 1.9 °C 1018.8 hPa WSW 14.5 km/h 22.5 km/h 62% 0 mm
12:49 8.8 °C 1.9 °C 1018.8 hPa SW 12.9 km/h 29 km/h 62% 0 mm
12:54 8.9 °C 2 °C 1018.5 hPa SSW 12.9 km/h 29 km/h 62% 0 mm
12:59 8.9 °C 2.1 °C 1018.5 hPa SW 9.7 km/h 25.7 km/h 62% 0 mm
13:04 8.9 °C 2.1 °C 1018.5 hPa SSW 14.5 km/h 24.1 km/h 62% 0 mm
13:09 8.9 °C 2.2 °C 1018.5 hPa SSW 22.5 km/h 22.5 km/h 63% 0 mm
13:14 8.9 °C 2.2 °C 1018.5 hPa West 6.4 km/h 25.7 km/h 63% 0 mm
13:19 8.8 °C 2.2 °C 1018.2 hPa SSW 4.8 km/h 27.4 km/h 63% 0 mm
13:24 8.8 °C 2.4 °C 1018.2 hPa SSW 11.3 km/h 29 km/h 64% 0 mm
13:29 8.9 °C 2.4 °C 1018.2 hPa SW 11.3 km/h 29 km/h 64% 0 mm
13:34 8.8 °C 2.4 °C 1018.2 hPa SW 11.3 km/h 25.7 km/h 64% 0 mm
13:39 8.9 °C 2.7 °C 1018.2 hPa SSW 12.9 km/h 29 km/h 65% 0 mm
13:44 8.8 °C 2.8 °C 1018.2 hPa SSW 14.5 km/h 32.2 km/h 66% 0 mm
13:49 8.7 °C 3.2 °C 1018.2 hPa SSW 14.5 km/h 32.2 km/h 68% 0 mm
13:54 8.6 °C 3.4 °C 1018.2 hPa South 11.3 km/h 29 km/h 70% 0 mm
13:59 8.3 °C 3.5 °C 1018.2 hPa SW 25.7 km/h 33.8 km/h 72% 0 mm
14:04 8 °C 3.4 °C 1018.2 hPa SW 8 km/h 30.6 km/h 73% 0 mm
14:09 7.7 °C 3.6 °C 1017.8 hPa South 9.7 km/h 32.2 km/h 75% 0 mm
14:14 7.6 °C 3.7 °C 1018.2 hPa South 16.1 km/h 32.2 km/h 76% 0 mm
14:19 7.4 °C 3.7 °C 1018.2 hPa SSW 19.3 km/h 27.4 km/h 77% 0 mm
14:24 7.3 °C 3.6 °C 1018.2 hPa SSW 8 km/h 33.8 km/h 77% 0 mm
14:29 7.3 °C 3.7 °C 1018.2 hPa SSW 16.1 km/h 29 km/h 78% 0 mm
14:34 7.2 °C 3.7 °C 1017.8 hPa SSW 12.9 km/h 30.6 km/h 78% 0 mm
14:39 7.2 °C 3.8 °C 1017.8 hPa SSW 14.5 km/h 35.4 km/h 79% 0 mm
14:44 7.1 °C 3.7 °C 1017.8 hPa SSW 14.5 km/h 35.4 km/h 79% 0 mm
14:49 7.1 °C 3.7 °C 1017.8 hPa SSW 12.9 km/h 27.4 km/h 79% 0.25 mm
14:54 7 °C 3.8 °C 1018.2 hPa SSW 9.7 km/h 27.4 km/h 80% 0.25 mm
14:59 7 °C 3.8 °C 1018.2 hPa SW 17.7 km/h 22.5 km/h 80% 0.25 mm
15:04 6.9 °C 3.7 °C 1018.2 hPa South 17.7 km/h 20.9 km/h 80% 0.25 mm
15:09 6.9 °C 3.7 °C 1017.8 hPa SSW 11.3 km/h 25.7 km/h 80% 0.25 mm
15:14 6.9 °C 3.8 °C 1017.8 hPa South 9.7 km/h 16.1 km/h 81% 0.25 mm
15:19 6.8 °C 3.8 °C 1017.8 hPa SSW 9.7 km/h 24.1 km/h 81% 0.51 mm
15:25 6.8 °C 3.8 °C 1017.8 hPa SW 8 km/h 20.9 km/h 81% 0.51 mm
15:30 6.8 °C 3.9 °C 1017.8 hPa SSW 9.7 km/h 22.5 km/h 82% 0.76 mm
15:39 6.8 °C 4 °C 1017.8 hPa SW 12.9 km/h 27.4 km/h 82% 0.76 mm
15:44 6.8 °C 4.2 °C 1017.8 hPa SSW 11.3 km/h 27.4 km/h 83% 0.76 mm
15:50 6.8 °C 4.1 °C 1017.8 hPa SSW 6.4 km/h 19.3 km/h 83% 0.76 mm
16:00 6.8 °C 4.1 °C 1017.8 hPa SSW 8 km/h 22.5 km/h 83% 1.02 mm
16:05 6.7 °C 4.2 °C 1018.2 hPa South 1.6 km/h 11.3 km/h 84% 1.02 mm
16:14 6.6 °C 4.1 °C 1018.2 hPa SSW 9.7 km/h 22.5 km/h 84% 1.52 mm
16:19 6.6 °C 4.2 °C 1018.2 hPa SSW 9.7 km/h 19.3 km/h 85% 1.27 mm
16:24 6.6 °C 4.2 °C 1018.2 hPa SSW 9.7 km/h 20.9 km/h 85% 1.52 mm
16:29 6.5 °C 4.2 °C 1018.2 hPa WSW 4.8 km/h 17.7 km/h 85% 1.52 mm
16:34 6.5 °C 4.3 °C 1018.2 hPa SSW 12.9 km/h 19.3 km/h 86% 1.52 mm
16:39 6.5 °C 4.3 °C 1018.2 hPa SW 16.1 km/h 30.6 km/h 86% 1.78 mm
16:44 6.5 °C 4.3 °C 1018.2 hPa SSW 9.7 km/h 24.1 km/h 86% 2.03 mm
16:49 6.5 °C 4.3 °C 1018.2 hPa SSW 11.3 km/h 24.1 km/h 86% 1.78 mm
16:54 6.4 °C 4.3 °C 1018.2 hPa SW 9.7 km/h 24.1 km/h 86% 2.03 mm
16:59 6.4 °C 4.4 °C 1018.2 hPa SW 8 km/h 19.3 km/h 87% 1.78 mm
17:04 6.4 °C 4.4 °C 1018.2 hPa SSW 8 km/h 19.3 km/h 87% 2.03 mm
17:09 6.4 °C 4.4 °C 1018.2 hPa SSW 9.7 km/h 19.3 km/h 87% 2.03 mm
17:14 6.4 °C 4.4 °C 1018.5 hPa SW 8 km/h 19.3 km/h 87% 1.78 mm
17:19 6.4 °C 4.4 °C 1018.5 hPa SSW 3.2 km/h 12.9 km/h 87% 2.03 mm
17:24 6.4 °C 4.6 °C 1018.2 hPa South 8 km/h 19.3 km/h 88% 2.03 mm
17:29 6.4 °C 4.6 °C 1018.2 hPa SSW 8 km/h 19.3 km/h 88% 2.03 mm
17:34 6.4 °C 4.6 °C 1018.5 hPa SW 8 km/h 24.1 km/h 88% 2.29 mm
17:39 6.4 °C 4.6 °C 1018.5 hPa SW 6.4 km/h 22.5 km/h 88% 2.03 mm
17:44 6.4 °C 4.6 °C 1018.5 hPa SSW 4.8 km/h 19.3 km/h 88% 2.03 mm
17:49 6.4 °C 4.6 °C 1018.5 hPa SSW 9.7 km/h 20.9 km/h 88% 2.03 mm
17:54 6.4 °C 4.6 °C 1018.5 hPa SW 9.7 km/h 24.1 km/h 88% 2.03 mm
17:59 6.6 °C 4.7 °C 1018.5 hPa SSW 9.7 km/h 24.1 km/h 88% 2.03 mm
18:04 6.6 °C 4.7 °C 1018.5 hPa SSW 11.3 km/h 24.1 km/h 88% 2.03 mm
18:09 6.6 °C 4.7 °C 1018.5 hPa SSW 11.3 km/h 25.7 km/h 88% 2.03 mm
18:14 6.6 °C 4.8 °C 1018.8 hPa SW 9.7 km/h 25.7 km/h 88% 2.03 mm
18:19 6.6 °C 4.9 °C 1018.8 hPa SW 9.7 km/h 22.5 km/h 89% 2.03 mm
18:24 6.7 °C 5 °C 1018.8 hPa SW 11.3 km/h 25.7 km/h 89% 1.78 mm
18:29 6.7 °C 5.1 °C 1018.8 hPa SW 17.7 km/h 25.7 km/h 89% 1.52 mm
18:34 6.7 °C 5.1 °C 1018.8 hPa WSW 14.5 km/h 25.7 km/h 89% 1.52 mm
18:39 6.8 °C 5.1 °C 1018.8 hPa South 19.3 km/h 29 km/h 89% 1.52 mm
18:44 6.8 °C 5.1 °C 1018.8 hPa WSW 14.5 km/h 29 km/h 89% 1.27 mm
18:49 6.8 °C 5.2 °C 1018.8 hPa SW 3.2 km/h 30.6 km/h 89% 1.27 mm
18:54 6.8 °C 5.2 °C 1018.8 hPa SSW 12.9 km/h 29 km/h 89% 1.27 mm
18:59 6.8 °C 5.2 °C 1018.8 hPa West 8 km/h 30.6 km/h 89% 1.27 mm
19:04 6.8 °C 5.2 °C 1018.8 hPa SW 12.9 km/h 30.6 km/h 89% 1.02 mm
19:09 6.9 °C 5.2 °C 1018.8 hPa SSW 14.5 km/h 35.4 km/h 89% 0.76 mm
19:14 6.9 °C 5.2 °C 1018.8 hPa SSW 14.5 km/h 35.4 km/h 89% 0.76 mm
19:19 6.9 °C 5.2 °C 1019.2 hPa SW 12.9 km/h 35.4 km/h 89% 0.51 mm
19:24 6.9 °C 5.2 °C 1019.2 hPa West 17.7 km/h 25.7 km/h 89% 0.51 mm
19:29 6.9 °C 5.3 °C 1019.2 hPa SW 9.7 km/h 25.7 km/h 89% 0.51 mm
19:34 6.9 °C 5.3 °C 1019.5 hPa WSW 9.7 km/h 25.7 km/h 89% 0.25 mm
19:39 6.9 °C 5.3 °C 1019.5 hPa SW 12.9 km/h 25.7 km/h 89% 0.25 mm
19:44 6.9 °C 5.2 °C 1019.5 hPa SW 6.4 km/h 25.7 km/h 89% 0.25 mm
19:49 6.9 °C 5.3 °C 1019.5 hPa SW 20.9 km/h 29 km/h 89% 0.25 mm
19:54 7 °C 5.3 °C 1019.9 hPa SW 12.9 km/h 32.2 km/h 89% 0 mm
19:59 7 °C 5.3 °C 1019.9 hPa SW 17.7 km/h 25.7 km/h 89% 0 mm
20:04 7.1 °C 5.2 °C 1019.9 hPa SW 6.4 km/h 27.4 km/h 88% 0 mm
20:09 7.1 °C 5.2 °C 1019.9 hPa WSW 12.9 km/h 30.6 km/h 88% 0 mm
20:14 7.1 °C 5.3 °C 1020.2 hPa WSW 16.1 km/h 33.8 km/h 88% 0 mm
20:19 7.1 °C 5.3 °C 1020.2 hPa WSW 17.7 km/h 33.8 km/h 88% 0 mm
20:24 7.1 °C 5.2 °C 1020.2 hPa WSW 16.1 km/h 30.6 km/h 88% 0 mm
20:29 7.1 °C 5.1 °C 1020.2 hPa WSW 8 km/h 30.6 km/h 87% 0 mm
20:34 7 °C 5 °C 1020.5 hPa SW 12.9 km/h 30.6 km/h 87% 0 mm
20:39 7 °C 5 °C 1020.2 hPa SW 24.1 km/h 30.6 km/h 87% 0 mm
20:44 7 °C 5 °C 1020.2 hPa WSW 16.1 km/h 30.6 km/h 87% 0 mm
20:49 6.9 °C 4.9 °C 1020.2 hPa WSW 16.1 km/h 30.6 km/h 87% 0 mm
20:54 6.9 °C 4.7 °C 1020.5 hPa WSW 16.1 km/h 30.6 km/h 86% 0 mm
20:59 6.8 °C 4.7 °C 1020.2 hPa WSW 19.3 km/h 25.7 km/h 86% 0 mm
21:04 6.8 °C 4.6 °C 1020.5 hPa West 9.7 km/h 27.4 km/h 86% 0 mm
21:09 6.8 °C 4.6 °C 1020.5 hPa SW 17.7 km/h 29 km/h 86% 0 mm
21:14 6.7 °C 4.5 °C 1020.5 hPa SW 14.5 km/h 40.2 km/h 86% 0 mm
21:19 6.6 °C 4.4 °C 1020.5 hPa WSW 16.1 km/h 40.2 km/h 86% 0 mm
21:24 6.4 °C 4.2 °C 1020.9 hPa WSW 14.5 km/h 27.4 km/h 86% 0 mm
21:29 6.2 °C 4 °C 1020.9 hPa WSW 12.9 km/h 27.4 km/h 86% 0 mm
21:34 6 °C 3.8 °C 1020.9 hPa WSW 11.3 km/h 25.7 km/h 86% 0 mm
21:39 5.8 °C 3.6 °C 1020.9 hPa SW 11.3 km/h 25.7 km/h 86% 0 mm
21:44 5.4 °C 3.3 °C 1021.2 hPa West 20.9 km/h 25.7 km/h 86% 0 mm
21:49 5.2 °C 3.1 °C 1021.2 hPa SW 12.9 km/h 24.1 km/h 86% 0 mm
21:54 5.2 °C 3.2 °C 1021.2 hPa West 12.9 km/h 27.4 km/h 87% 0 mm
21:59 5.2 °C 3.4 °C 1021.2 hPa WSW 14.5 km/h 27.4 km/h 88% 0 mm
22:04 5.1 °C 3.3 °C 1021.6 hPa WSW 14.5 km/h 25.7 km/h 88% 0 mm
22:09 5 °C 3.2 °C 1021.2 hPa WSW 12.9 km/h 24.1 km/h 88% 0 mm
22:14 4.9 °C 3.1 °C 1021.2 hPa WSW 11.3 km/h 17.7 km/h 88% 0 mm
22:19 4.8 °C 2.9 °C 1021.2 hPa West 12.9 km/h 19.3 km/h 88% 0 mm
22:24 4.7 °C 2.8 °C 1021.6 hPa West 12.9 km/h 22.5 km/h 88% 0 mm
22:29 4.5 °C 2.8 °C 1021.6 hPa WSW 11.3 km/h 22.5 km/h 89% 0 mm
22:34 4.4 °C 2.7 °C 1021.6 hPa WSW 11.3 km/h 22.5 km/h 89% 0 mm
22:39 4.3 °C 2.7 °C 1021.6 hPa SW 8 km/h 16.1 km/h 89% 0 mm
22:44 4.2 °C 2.6 °C 1021.2 hPa SW 9.7 km/h 20.9 km/h 89% 0 mm
22:49 4.2 °C 2.5 °C 1021.6 hPa WSW 9.7 km/h 19.3 km/h 89% 0 mm
22:54 4.1 °C 2.4 °C 1021.2 hPa WSW 4.8 km/h 17.7 km/h 89% 0 mm
22:59 3.9 °C 2.2 °C 1021.6 hPa SW 9.7 km/h 17.7 km/h 89% 0 mm
23:04 3.8 °C 2.3 °C 1021.6 hPa SW 8 km/h 17.7 km/h 90% 0 mm
23:09 3.7 °C 2.2 °C 1021.9 hPa SW 8 km/h 17.7 km/h 90% 0 mm
23:14 3.6 °C 2.1 °C 1021.9 hPa WSW 9.7 km/h 24.1 km/h 90% 0 mm
23:19 3.4 °C 1.9 °C 1021.9 hPa SW 9.7 km/h 24.1 km/h 90% 0 mm
23:24 3.3 °C 1.8 °C 1021.9 hPa SW 8 km/h 17.7 km/h 90% 0 mm
23:29 3.2 °C 1.7 °C 1021.9 hPa SW 8 km/h 17.7 km/h 90% 0 mm
23:34 3.1 °C 1.6 °C 1022.2 hPa South 11.3 km/h 16.1 km/h 90% 0 mm
23:39 3 °C 1.5 °C 1022.2 hPa WSW 12.9 km/h 14.5 km/h 90% 0 mm
23:44 2.8 °C 1.3 °C 1022.2 hPa West 6.4 km/h 17.7 km/h 90% 0 mm
23:49 2.7 °C 1.2 °C 1022.2 hPa SW 8 km/h 16.1 km/h 90% 0 mm
23:54 2.6 °C 1.1 °C 1022.2 hPa WSW 8 km/h 14.5 km/h 90% 0 mm
23:59 2.4 °C 0.9 °C 1022.2 hPa SW 12.9 km/h 17.7 km/h 90% 0 mm
Buffalo, New York, USA
Compliments of Weather Underground - 2.5 mb